Location: Jaite
(41.2884°N, 81.5737°W)
Time: 18:55:45
(UTC+00:00)

Cosmos 2366 rocket - Pass Details

Date: 18 January 2020
Orbit: 956 x 996 km, 82.9° (Epoch: 27 February)

Event Time Altitude Azimuth Distance (km) Brightness Sun altitude
Rises 00:10:56 0° 171° (S) 3,629 7.0 -19.8°
Reaches altitude 10° 00:13:28 10° 167° (SSE) 2,691 6.3 -20.3°
Maximum altitude 00:19:26 54° 91° (E) 1,169 4.0 -21.4°
Enters shadow 00:24:56 13° 18° (NNE) 2,535 5.9 -22.4°
